Regional Weather Roundup
Issued by NWS

Home | Current Version | Previous Version | Graphics & Text | Print | Product List | Glossary On
Versions: 1 2 3 4 5 6 7 8 9 10 11 12 13 14 15 16 17 18 19 20 21 22 23 24 25 26 27 28 29 30 31 32 33 34 35 36 37 38 39 40 41 42 43 44 45 46 47 48 49 50
624
ASUS45 KABQ 080001
RWRNM
NEW MEXICO REGIONAL WEATHER ROUNDUP
NATIONAL WEATHER SERVICE ALBUQUERQUE NM
500 PM MST WED DEC 07 2016

NOTE: "FAIR" MEANS FEW OR NO CLOUDS BELOW 12,000 FEET AGL WITH NO
       SIGNIFICANT WEATHER OR OBSTRUCTIONS TO VISION.

      THIS PRODUCT IS RELEASED AS TWO VERSIONS.  ONE VERSION NEAR
      THE TOP OF THE HOUR CONTAINING PRELIMINARY DATA FROM ALBUQUERQUE
      AND OTHER STATIONS.  A FINAL VERSION WITH ADDITIONAL DATA IS
      ISSUED ABOUT 10 MINUTES AFTER THE HOUR.

NMZ501-503-504-510>518-080100-
NORTHWEST PLATEAU/NORTHCENTRAL MOUNTAINS

CITY           SKY/WX    TMP DP  RH WIND       PRES   REMARKS
FARMINGTON     FAIR      32   3  29 W12       30.12R WCI  23
6HR MIN TEMP:  32; 6HR MAX TEMP:  36;

LOS ALAMOS     FAIR      33  14  44 CALM      30.08R
SANTA FE       FAIR      35  13  40 W10       30.07R WCI  27
6HR MIN TEMP:  35; 6HR MAX TEMP:  44;

TAOS           FAIR      28   9  43 SW8       30.07R WCI  20
ANGEL FIRE     FAIR      23   9  54 SW12      30.05R WCI  12

$$
NMZ402-403-502-505>509-080100-
WESTCENTRAL MOUNTAINS/SOUTHWEST MOUNTAINS

CITY           SKY/WX    TMP DP  RH WIND       PRES   REMARKS
GALLUP         FAIR      35  18  49 N10       30.11R WCI  27
6HR MIN TEMP:  33; 6HR MAX TEMP:  44;

GRANTS         FAIR      37  19  47 N8        30.10R WCI  30

$$
NMZ407-409-411-412-080100-
SOUTHERN DESERTS

CITY           SKY/WX    TMP DP  RH WIND       PRES   REMARKS
DEMING         FAIR      54  33  45 W8        30.05R
6HR MIN TEMP:  52; 6HR MAX TEMP:  58;

LAS CRUCES     FAIR      55  28  36 SW6       30.05R
HOLLOMAN AFB   FAIR      56  26  31 S6        30.06R
T OR C         FAIR      54  24  31 E6        30.01R
6HR MIN TEMP:  54; 6HR MAX TEMP:  59;


$$
NMZ519>523-080100-
CENTRAL VALLEYS/CENTRAL HIGHLANDS

CITY           SKY/WX    TMP DP  RH WIND       PRES   REMARKS
ALBUQUERQUE    MOCLDY    41  18  39 N13       30.10R
6HR MIN TEMP:  41; 6HR MAX TEMP:  45;

DOUBLE EAGLE   MOCLDY    36  18  48 N8        30.10R WCI  29
MORIARTY ARPT  FAIR      34  17  50 NW6       30.10R WCI  29
6HR MIN TEMP:  34; 6HR MAX TEMP:  46;

CLINES CORNERS FAIR      31  17  56 W12       30.09R WCI  22
6HR MIN TEMP:  31; 6HR MAX TEMP:  42;

BELEN          FAIR      41  19  41 NE12      30.09R
6HR MIN TEMP:  41; 6HR MAX TEMP:  51;

SOCORRO        MOCLDY    48  22  34 N12       30.07R
6HR MIN TEMP:  48; 6HR MAX TEMP:  58;


$$
NMZ524>526-539-540-080100-
SOUTHCENTRAL MOUNTAINS

CITY           SKY/WX    TMP DP  RH WIND       PRES   REMARKS
RUIDOSO        FAIR      43  25  49 SE9       30.11R

$$
NMZ527>531-080100-
NORTHEAST HIGHLANDS/NORTHEAST PLAINS

CITY           SKY/WX    TMP DP  RH WIND       PRES   REMARKS
LAS VEGAS      FAIR      26  12  55 E12       30.06R WCI  16
6HR MIN TEMP:  26; 6HR MAX TEMP:  48;

RATON          FAIR      17   6  62 N16       30.11R WCI   2
6HR MIN TEMP:  17; 6HR MAX TEMP:  31;

CLAYTON        FAIR      17  13  84 NE17      30.22R WCI   1
6HR MIN TEMP:  17; 6HR MAX TEMP:  33;


$$
NMZ532>537-080100-
EASTCENTRAL PLAINS

CITY           SKY/WX    TMP DP  RH WIND       PRES   REMARKS
TUCUMCARI      FAIR      31  12  45 NE18      30.19R WCI  19
6HR MIN TEMP:  31; 6HR MAX TEMP:  41;

CANNON AFB     FAIR      31  14  47 NE17      30.16R WCI  20
6HR MIN TEMP:  31; 6HR MAX TEMP:  51;

CLOVIS AIRPORT FAIR      30  10  43 NE16      30.17R WCI  19

$$
NMZ028-029-538-080100-
SOUTHEAST PLAINS

CITY           SKY/WX    TMP DP  RH WIND       PRES   REMARKS
ROSWELL        FAIR      48  33  56 W7        30.04R
6HR MIN TEMP:  39; 6HR MAX TEMP:  55;

ARTESIA        FAIR      45  37  76 SW7       30.05R
CARLSBAD       NOT AVBL


$$




USA.gov is the U.S. government's official web portal to all federal, state and local government web resources and services.